User: anonymous   Login
Location: Unspecified
(0.0000°N, 0.0000°E)
Time: 01:23:16
(UTC+00:00)
Language:

Kosmos-1598 - Orbit

View from above orbital plane
View from above orbital plane
View from above satellite
View from above satellite

Ground track
Ground track

The orbit data is extracted from the following two-line orbital elements,

1 15292U 84100A   18202.86745164  .00000030  00000-0  16159-4 0  9995
2 15292  82.9473 143.4058 0033415 135.4796 277.7055 13.72965540696062
Epoch (UTC): 21 July 2018 20:49:07
Eccentricity: 0.0033415
inclination: 82.9473°
perigee height: 964 km
apogee height: 1013 km
right ascension of ascending node: 143.4058°
argument of perigee: 135.4796°
revolutions per day: 13.72965540
mean anomaly at epoch: 277.7055°
orbit number at epoch: 69606

The dashed part of the orbit path shows where the satellite is in the earth's shadow,  

DLR